Flag for Canada Weather past 2 weeks in Lethbridge, Alberta, Canada

Now
36 °F

Light rain. Mostly cloudy.


Feels Like: 29 °F
Forecast: 35 / 49 °F
Wind: 8 mph from Northwest

Location: Lethbridge

Current Time: Apr 1, 2015 at 4:54:50 AM

Latest Report: Apr 1, 2015 at 4:04 AM


Visibility: 7 mi

Pressure: 29.79 "Hg

Humidity: 93%

Dew point: 34 °F

Location of LethbridgeLocation

Historic Weather in Lethbridge — Graph

°F

Lethbridge temperature yesterday

Maximum temperature yesterday: 66 °F (at 1:00 PM)
Minimum temperature yesterday: 30 °F (at 7:00 AM)
Average temperature yesterday: 48 °F

Past Weeks' High & Low Weather Summary

 TemperatureHumidityPressure
High70 °F (Mar 27, 6:00 PM)100% (Mar 17, 8:00 PM)30.48 "Hg (Mar 17, 8:00 PM)
Low18 °F (Mar 25, 5:00 AM)19% (Mar 31, 1:00 PM)29.57 "Hg (Mar 31, 2:00 PM)
Average42 °F69%30.00 "Hg
* Reported Mar 17 3:00 AM — Apr 1 3:53 AM, Lethbridge, Weather by CustomWeather, © 2015

Note: Actual official high and low records may vary slightly from our data, if they occured in-between our weather recording intervals... More about our weather records

Advertising

Lethbridge weather history for previous 24 hours

 ConditionsComfort  
Time TempWeatherWind HumidityBarometerVisibility
3:53 AM
Wed, Apr 1
36 °FLight rain. Overcast.7 mph93%29.78 "Hg9 mi
3:00 AM37 °FMostly cloudy.8 mph75%29.75 "Hg9 mi
2:00 AM41 °FOvercast.22 mph57%29.73 "Hg9 mi
1:00 AM39 °FPassing clouds.20 mph61%29.72 "Hg9 mi
12:00 AM39 °FClear.23 mph65%29.66 "Hg9 mi
11:00 PM
Tue, Mar 31
41 °FClear.25 mph66%29.66 "Hg9 mi
10:00 PM43 °FPassing clouds.24 mph57%29.68 "Hg15 mi
9:00 PM45 °FPassing clouds.24 mph57%29.66 "Hg30 mi
8:00 PM50 °FPassing clouds.26 mph40%29.62 "Hg40 mi
7:00 PM54 °FPassing clouds.30 mph35%29.62 "Hg40 mi
6:00 PM57 °FPassing clouds.26 mph36%29.61 "Hg40 mi
5:00 PM57 °FPassing clouds.29 mph39%29.59 "Hg40 mi
4:00 PM63 °FPassing clouds.32 mph25%29.58 "Hg40 mi
3:00 PM64 °FPassing clouds.25 mph28%29.58 "Hg40 mi
2:00 PM66 °FPassing clouds.30 mph21%29.57 "Hg40 mi
1:00 PM66 °FPassing clouds.32 mph19%29.58 "Hg40 mi
12:00 PM64 °FScattered clouds.28 mph22%29.61 "Hg40 mi
11:00 AM64 °FScattered clouds.21 mph26%29.62 "Hg40 mi
10:00 AM55 °FScattered clouds.15 mph38%29.66 "Hg40 mi
9:00 AM52 °FPassing clouds.9 mph44%29.68 "Hg40 mi
8:00 AM36 °FPassing clouds.8 mph75%29.71 "Hg40 mi
7:00 AM30 °FPassing clouds.5 mph80%29.70 "Hg40 mi
6:00 AM34 °FPassing clouds.6 mph70%29.72 "Hg15 mi
5:00 AM37 °FClear.10 mph65%29.72 "Hg9 mi
4:00 AM32 °FClear.7 mph80%29.75 "Hg9 mi
Weather by CustomWeather, © 2015

See weather overviewHow to use our weather pages